Theta_e
307 307 306 306 306 306 306 306 307 307 307 306 306 306 307 309 310 315 318 315 311 307 308 318 317 317 315 313 312 312 312 313 314 316 317 319 318 320 319 320 321 324 325 348 351
308 307 307 306 306 306 307 308 308 309 308 307 308 309 310 310 313 319 315 310 309 310 309 314 316 315 314 314 314 309 308 313 314 314 315 317 317 317 318 318 319 321 327 346 352
312 307 307 307 307 307 308 308 308 307 308 309 311 311 311 311 318 317 313 310 310 309 312 316 316 315 314 314 314 312 309 311 313 314 316 316 316 317 316 316 317 319 322 327 344
313 311 306 307 307 308 308 307 307 307 308 309 311 310 310 314 320 316 310 310 311 312 314 314 315 315 313 313 316 312 313 313 313 314 313 312 314 314 315 316 316 317 321 322 322
312 312 310 306 307 308 308 307 307 309 309 308 310 310 311 319 322 316 312 313 314 315 315 315 315 315 312 313 315 314 313 315 315 315 315 315 313 313 313 314 315 316 319 321 321
310 310 312 306 307 308 308 307 308 311 309 308 309 310 311 321 314 314 314 314 314 314 315 315 315 315 315 314 312 315 315 315 316 315 315 313 313 314 314 314 314 315 316 320 320
311 306 308 307 306 308 308 307 309 312 310 313 310 310 311 312 315 314 314 315 315 315 315 315 315 315 314 313 315 315 313 314 314 315 313 315 312 313 314 314 314 314 315 317 319
312 307 306 305 306 308 308 307 311 314 312 314 310 311 312 317 316 315 314 315 314 314 315 316 316 316 315 314 314 314 313 313 313 314 314 314 313 314 315 315 314 314 314 315 316
313 306 305 305 307 308 307 313 315 315 313 316 317 320 319 317 317 316 315 314 314 314 314 315 316 316 315 313 313 313 314 314 315 316 315 313 313 314 315 314 314 314 315 315 314
313 307 306 307 308 312 313 315 314 315 316 319 318 319 318 317 316 316 315 314 314 315 315 315 316 314 313 314 316 316 316 316 317 318 317 315 315 314 315 314 314 316 316 316 315
315 307 306 307 312 313 316 316 313 316 314 316 314 318 316 315 315 315 315 315 315 316 314 315 315 316 316 316 317 317 317 317 317 317 317 316 315 315 314 315 314 315 315 315 316
316 307 305 307 313 314 314 316 313 313 314 315 315 317 315 315 315 315 315 316 316 315 315 316 317 317 318 318 318 318 318 318 318 318 318 317 316 316 316 314 315 316 316 316 316
317 307 305 308 312 315 316 312 313 314 314 317 317 315 315 315 315 315 317 316 315 315 314 314 315 316 316 316 317 316 318 318 318 319 318 318 319 317 317 317 317 316 316 316 316
317 310 305 310 314 317 311 311 313 314 317 322 316 315 315 315 316 317 317 316 316 315 315 315 315 316 316 316 316 317 317 318 318 320 320 319 321 316 317 317 317 317 317 317 317
317 313 305 311 313 311 310 311 316 319 323 315 314 315 313 314 316 318 316 317 316 316 316 317 316 315 317 317 317 316 316 316 317 318 318 320 322 319 317 317 317 317 318 318 317
316 312 309 310 313 311 310 312 317 323 326 315 314 313 313 315 316 315 316 315 315 316 316 316 317 318 318 319 319 318 319 318 318 318 322 320 321 319 318 318 317 317 318 318 318
316 313 311 311 312 311 310 316 320 323 314 314 311 312 314 314 315 315 314 314 317 319 320 319 319 318 318 318 318 319 321 323 324 322 322 318 320 319 317 317 317 317 317 318 319
316 314 315 312 311 312 316 317 324 317 313 312 312 314 314 314 315 314 314 314 317 317 316 320 319 317 316 315 315 315 319 322 323 324 323 319 321 318 317 318 318 317 319 318 318
317 316 318 314 311 312 317 321 316 314 313 313 313 313 313 314 314 313 314 315 315 317 318 317 318 315 314 314 313 314 317 319 320 319 320 317 315 315 316 317 318 317 319 318 318
317 319 317 315 314 314 317 322 315 315 314 314 314 313 313 314 315 315 316 316 316 317 315 315 316 315 314 313 314 314 316 318 319 316 317 316 316 315 318 318 319 318 317 317 318
318 319 315 318 317 316 317 316 316 315 314 314 313 313 313 314 313 315 317 315 316 316 315 314 313 314 313 314 314 316 316 318 320 322 321 317 315 315 317 318 317 316 317 317 318
316 320 319 317 317 317 316 317 316 316 315 314 313 313 313 312 315 315 315 314 315 315 316 314 312 315 313 312 313 313 316 318 321 319 317 316 316 315 314 316 314 313 316 316 317
317 319 320 318 319 319 318 318 318 317 314 313 313 312 312 313 314 313 313 315 315 315 313 310 312 315 314 314 317 319 319 319 319 318 320 320 316 316 315 316 315 315 316 316 317
316 319 318 318 317 318 319 319 320 317 315 313 312 312 312 312 312 314 316 314 315 316 315 311 311 315 314 314 313 314 314 315 317 321 320 320 318 317 316 316 316 316 316 316 319
318 318 318 317 317 318 318 320 320 316 315 313 312 312 311 313 315 316 314 314 314 316 315 312 314 313 313 314 314 315 316 316 317 319 322 319 319 318 318 316 317 317 318 319 319
317 316 316 316 317 318 318 319 319 319 315 313 313 313 312 314 315 315 314 314 315 313 311 311 314 313 313 314 315 318 311 311 312 313 313 313 314 312 312 311 312 316 318 319 320
315 315 314 316 316 317 318 317 319 316 314 314 313 312 315 315 314 314 314 316 318 313 312 313 313 314 315 315 316 319 309 308 308 308 308 310 309 308 307 307 309 312 317 318 320
Wind_Speed
24 21 20 19 17 14 13 14 15 16 17 17 18 17 16 16 13 7 4 5 11 7 4 11 12 8 11 9 12 18 6 10 9 12 13 27 15 36 32 25 35 32 14 27 26
24 21 20 18 15 13 13 14 15 17 17 17 17 16 16 14 4 4 5 9 12 12 7 6 14 12 9 11 13 7 5 7 9 14 14 19 21 24 25 27 28 39 5 21 26
25 22 18 16 14 13 13 14 16 17 17 16 16 15 12 11 5 3 8 10 9 9 10 10 9 12 15 18 22 13 10 12 20 28 28 19 23 25 19 16 23 29 36 9 21
27 23 19 15 14 13 14 14 17 17 18 15 16 13 10 7 5 3 7 9 9 8 12 13 12 13 6 7 20 5 18 21 21 23 25 10 24 20 22 30 30 35 34 32 14
30 25 20 16 13 13 14 15 18 18 16 11 15 12 9 6 6 3 10 7 9 12 10 14 15 19 7 10 19 8 9 19 19 17 17 21 14 14 26 34 31 37 33 31 29
31 27 22 18 13 13 13 15 17 17 15 11 14 13 6 5 5 7 11 12 10 11 14 13 15 17 12 13 8 18 19 19 23 23 23 10 11 21 36 33 31 32 34 33 32
32 28 23 18 12 12 14 15 15 15 13 16 12 11 8 10 1 6 10 12 9 8 9 11 16 17 19 8 15 25 13 15 12 14 12 19 11 15 37 37 30 31 33 34 37
35 29 22 17 11 12 15 16 13 14 10 14 9 6 7 7 6 9 12 12 16 10 12 11 10 15 14 18 18 13 9 8 9 13 25 15 18 21 29 30 28 29 32 31 37
38 29 20 15 12 14 16 16 14 14 7 10 5 6 9 8 13 8 4 14 16 17 11 11 11 11 16 7 7 7 12 16 20 19 18 11 22 19 30 25 28 28 30 33 38
40 27 18 14 14 15 13 16 18 5 2 10 0 8 9 8 13 11 15 19 24 16 17 13 17 5 7 5 8 11 11 14 15 16 14 8 13 9 19 23 23 28 29 33 34
42 26 17 13 11 13 12 14 16 6 8 12 19 18 23 14 11 13 18 19 19 7 7 18 8 10 18 17 18 15 17 19 18 15 14 15 14 15 14 12 14 23 31 33 36
41 26 17 13 9 11 12 11 15 15 14 16 19 20 15 13 15 18 21 10 7 9 10 11 13 18 20 20 22 20 20 23 20 18 18 17 19 13 13 8 22 20 19 29 33
40 25 15 15 7 11 11 16 15 13 5 14 12 8 7 9 14 24 6 10 8 8 12 14 16 20 21 15 17 18 17 17 20 18 17 14 26 16 12 16 24 28 26 33 37
41 26 14 12 7 11 14 16 18 11 2 6 8 4 7 17 16 6 14 15 4 10 11 12 11 19 20 21 19 21 14 17 17 10 13 7 19 18 5 12 12 19 28 34 37
40 27 11 11 9 13 19 17 15 4 3 6 17 7 32 19 23 11 16 14 10 17 13 17 14 16 18 21 20 26 18 17 20 10 13 10 8 23 6 15 16 20 25 31 40
36 25 11 10 8 20 21 15 9 2 3 4 16 17 21 24 16 26 21 28 23 13 15 16 19 17 16 17 17 16 13 14 11 7 13 8 13 22 14 20 18 18 28 33 43
39 18 4 14 11 19 21 14 2 2 14 12 20 20 18 14 16 18 18 16 6 8 9 18 11 10 9 8 8 12 4 3 4 7 12 9 11 19 5 13 20 21 28 31 45
38 8 3 10 16 15 13 4 2 14 13 15 16 19 11 21 10 13 16 16 2 5 5 7 9 9 11 12 11 15 7 3 6 4 3 4 8 5 10 18 25 25 24 32 36
27 7 4 11 13 13 13 3 3 10 13 15 13 12 12 19 14 13 12 7 7 6 3 6 6 22 26 21 10 2 5 7 4 8 4 6 11 12 21 21 13 11 12 19 30
24 12 2 11 20 13 2 5 11 15 10 10 10 11 19 20 16 16 7 6 11 4 7 4 14 14 19 14 13 13 5 3 4 4 6 5 7 4 9 10 7 6 6 11 20
18 10 7 22 14 10 1 7 14 25 11 5 10 14 14 13 17 13 8 14 8 4 3 7 7 11 8 6 6 2 2 3 4 4 3 5 5 7 6 3 10 9 17 16 11
15 5 17 16 7 8 5 11 22 15 19 7 6 6 9 15 14 9 11 13 18 8 2 2 4 6 14 26 20 18 8 12 4 4 4 6 14 8 9 8 8 9 18 20 21
24 7 18 19 4 5 8 12 25 13 6 8 6 8 10 10 13 12 17 16 7 4 3 5 4 6 7 3 4 4 2 6 11 9 16 9 8 5 11 6 10 11 25 25 24
9 4 10 14 23 11 12 13 17 18 16 16 13 13 10 16 13 16 15 13 14 5 15 13 4 8 11 17 15 22 23 20 16 7 7 12 21 15 13 15 9 13 23 25 18
6 6 11 5 11 17 14 13 19 16 14 19 5 12 16 18 11 11 23 22 25 6 5 2 6 10 17 22 23 25 28 24 17 12 8 9 16 13 11 11 14 18 19 24 15
8 8 9 21 18 14 12 12 17 21 14 9 13 17 16 8 10 24 25 21 21 6 3 4 4 11 18 20 19 15 13 10 5 6 9 11 13 13 13 22 20 18 18 20 16
15 14 9 10 11 9 7 17 22 18 6 23 22 12 8 14 24 31 37 18 1 7 7 2 3 6 8 13 22 2 3 16 14 11 7 8 4 6 16 21 17 19 19 25 22
Wind_Direction
359 358 357 357 360 3 5 2 358 351 345 340 337 333 331 328 333 333 12 325 324 335 324 356 332 291 250 250 268 276 257 256 265 274 288 294 304 308 328 336 331 310 193 133 149
358 355 355 355 357 1 1 360 355 350 342 339 336 332 327 328 3 29 339 323 322 319 309 334 346 344 332 295 250 210 269 266 255 277 284 289 307 322 329 332 326 337 109 147 150
355 354 351 352 352 353 356 356 352 349 344 339 335 331 327 331 338 139 353 344 336 346 359 6 326 295 276 276 272 239 238 249 265 276 285 294 301 313 320 304 313 320 324 234 178
357 351 349 345 344 346 349 350 350 343 344 340 337 338 327 339 32 159 347 351 2 360 11 347 314 291 288 279 287 271 247 243 251 267 283 297 307 298 299 287 302 305 314 313 332
356 350 346 339 336 338 342 345 346 346 345 341 346 337 335 319 265 290 335 11 22 3 345 318 314 322 335 337 326 325 309 321 316 311 305 292 297 299 293 296 296 296 305 312 317
358 352 346 339 328 331 336 342 346 347 350 327 331 331 320 281 324 329 342 4 344 327 317 314 321 317 313 309 304 305 307 304 299 300 300 304 301 303 290 293 300 296 296 303 304
358 352 347 340 328 331 334 336 339 340 342 344 324 321 297 264 276 317 324 303 297 297 287 297 310 328 326 317 302 318 312 303 302 287 269 268 269 252 265 281 283 289 294 292 290
357 353 351 348 343 339 337 334 332 331 328 353 5 340 282 335 227 283 272 290 309 285 299 280 295 293 293 290 291 291 285 280 267 258 260 232 252 248 255 268 276 277 281 287 287
358 354 357 358 353 347 345 342 334 327 310 331 330 333 281 300 252 285 279 284 292 289 277 283 255 271 285 282 294 270 261 259 266 252 242 223 243 249 244 248 259 263 265 271 277
359 356 359 3 3 6 2 353 344 345 5 321 350 296 278 269 294 272 289 296 281 274 296 287 264 220 251 232 250 258 274 285 290 303 309 262 290 287 266 227 240 256 272 267 266
359 356 356 1 14 13 15 7 0 358 321 266 267 249 284 304 310 290 280 277 292 304 277 265 260 228 244 245 255 276 287 282 284 286 296 295 262 257 267 252 265 263 252 268 259
358 355 354 354 355 345 349 6 359 321 302 294 267 257 269 289 277 280 287 259 297 270 266 269 250 245 254 253 241 242 250 265 272 280 279 285 277 269 260 243 247 241 274 278 278
357 353 353 350 355 352 341 348 333 328 296 294 228 236 243 268 269 277 267 262 254 298 298 272 281 292 295 300 297 286 267 253 266 272 264 310 285 276 264 262 257 241 247 253 267
355 350 348 8 17 350 0 339 321 309 284 250 192 171 297 299 273 346 343 308 253 277 276 273 287 290 297 292 293 282 289 301 306 308 271 215 275 260 257 276 265 261 236 243 253
353 350 349 350 346 2 341 329 333 15 22 35 39 19 346 328 308 336 357 352 330 317 296 277 277 277 283 286 284 281 287 285 287 262 285 257 259 270 222 253 252 255 250 256 254
354 347 6 355 342 357 332 320 307 355 286 52 13 354 334 323 343 3 11 3 337 311 295 283 297 287 274 299 299 310 326 318 314 273 258 226 228 264 238 245 255 257 243 241 248
348 342 353 7 347 352 330 344 7 265 355 358 351 346 312 359 353 9 359 350 11 336 351 309 276 273 53 20 333 49 18 282 246 220 254 197 224 241 276 243 245 249 255 251 238
350 359 359 5 4 349 350 356 278 351 346 356 344 320 356 347 356 353 344 330 349 10 311 341 329 2 341 317 300 284 161 271 295 245 294 274 251 245 231 254 255 272 268 254 251
357 13 28 356 350 334 356 331 359 354 358 348 334 335 331 329 334 348 341 308 355 51 349 303 258 321 304 294 279 223 194 163 251 235 254 224 273 282 265 255 260 260 344 283 231
352 357 27 346 340 338 23 259 353 350 351 349 323 322 328 325 333 349 329 298 325 119 113 254 289 278 288 307 280 239 158 271 204 241 242 230 275 262 11 0 322 303 273 333 251
353 336 3 346 356 327 31 353 337 321 345 300 314 316 314 320 318 311 291 301 273 322 288 281 219 282 303 231 233 287 347 183 241 230 271 299 249 191 127 330 311 277 281 297 316
6 333 15 356 15 357 359 343 319 316 314 316 330 306 301 308 306 314 290 279 268 242 248 248 289 282 282 274 270 251 229 208 236 235 232 261 257 293 298 213 228 278 289 289 294
338 286 335 24 25 332 326 330 310 311 341 341 318 311 308 301 305 299 292 310 318 122 186 180 233 296 299 306 32 38 321 254 267 260 242 246 255 349 318 288 275 264 289 285 294
336 314 349 339 354 338 328 312 312 347 335 336 320 308 313 303 290 293 323 317 323 195 215 166 231 223 260 278 297 289 279 271 264 250 268 238 272 276 279 276 283 301 344 311 317
347 3 342 312 325 311 317 305 330 329 336 337 320 323 305 307 314 326 319 315 318 16 146 167 252 247 253 261 269 270 272 286 273 288 250 298 278 299 307 307 311 323 325 321 326
7 346 322 294 304 325 317 339 326 331 330 318 317 306 299 316 335 322 311 309 302 115 137 239 275 297 290 274 268 276 35 352 307 278 278 269 263 256 304 311 307 303 307 309 298
325 319 325 297 319 327 315 324 313 328 319 316 310 315 341 335 318 304 295 297 166 154 187 232 284 304 279 323 307 153 42 350 292 270 269 270 311 335 301 292 273 282 285 281 274